Погода Туапсе

Хотите узнать прогноз погоды Туапсе? Тогда Вам сюда: Погода Туапсе

Поиск расширенной информации на нашем сайте:

Полезная информация:

Новости сайта



02.01.2020
Опубликован Долгосрочный прогноз погоды по городам России и ближнего зарубежья на январь 2020 года.
Карты: Прогноз на январь и февраль 2020 года, Сравнение прогнозируемой аномалии приземной температуры воздуха на январь 2020 года по разным моделям.




Погода Туапсе - сегодня

Время (UTC), дата Ветер
(°,м/с) 
Видим.   Явления Облачность Т
(°С)
Тd
(°С)
f(%) Тe
(°С)
Pmin
(гПа)
dP
(гПа)
Po
(мм)
O2
(г/м3)
Тmin Tmax R s Состояние
почвы
06 05.04.20 030 (СВ) 20000 м    10/8 1000 м верхняя 
[Sc|Ci]
+13.8 +1.3 43 +14  1021.7  761  292           
09 05.04.20 030 (СВ) 3{10}  20000 м    8/4 1000 м верхняя 
[Sc|Ci fib]
+17.8 +0.3 31 +18  1021  -0.6  760  288           
12 05.04.20 030 (СВ) 20000 м    9/6 1000 м верхняя 
[Cu Sc|Ci fib]
+18.5 -0.7 27 +19  1019.7  -1.3  759  287           
15 05.04.20 030 (СВ) 5-12  20000 м    8/6 1000 м верхняя 
[Cu Sc|Ci fib]
+16.3 -4.2 24 +16  1018.7  -1  759  289    +20.7       
18 05.04.20 040 (СВ) 5-12{13}  10 км    6/3 1000 м верхняя 
[Sc|Ci fib]
+14.5 -3.8 28 +14  1019.9  1.1  759  291           
21 05.04.20 030 (СВ) 7-17{17}  10 км    4/0 верхняя 
[Ci fib]
+12.9 -7.8 23 +12  1019.8  -0.1  759  293           
00 06.04.20 030 (СВ) 6-14{18}  10 км    6/0 верхняя 
[Ci fib]
+11.7 -12 18 +10  1020.2  0.3  760  295           
03 06.04.20 030 (СВ) 20000 м    3/0 верхняя 
[Ci fib]
+10.8 -12.5 18 +9  1020.8  0.6  760  296  +10.8        сухая 
06 06.04.20 020 (С) 3{25}  20000 м    1/0 верхняя 
[Ci fib]
+12.6 -11.3 18 +12  1022.5  1.7  761  294  +10.7         
09 06.04.20 010 (С) 4-12{17}  20000 м    1/0 верхняя 
[Ci fib]
+14.7 -9.4 18 +15  1025.1  2.7  763  293           
12 06.04.20 010 (С) 5-16{16}  20000 м    1/0 верхняя 
[Ci fib]
+15.2 -12.5 14 +15  1025.4  0.3  764  293           
15 06.04.20 030 (СВ) 7-19{20}  20000 м    ясно 
+12.8 -15.2 13 +12  1022.9  -2.6  762  294    +15.9       
18 06.04.20 040 (СВ) 8-22{25}  10 км    ясно 
+11 -16.4 13 +9  1024.8  1.9  763  297           
21 06.04.20 040 (СВ) 7-14{23}  10 км    ясно 
+9.9 -15.7 15 +8  1024.7  -0.1  763  298           
00 07.04.20 030 (СВ) 8-16{20}  10 км    ясно 
+9.4 -16.4 14 +7  1023.8  -1  762  298           
03 07.04.20 040 (СВ) 10 км    ясно 
+9.7 -19.4 11 +8  1024  0.3  762  298  +9.2        сухая 
06 07.04.20 040 (СВ) 8-17{22}  20000 м    ясно 
+12.7 -18.2 10 +11  1025.3  1.3  763  295           
09 07.04.20 030 (СВ) 4-12{18}  20000 м    ясно 
+16.1 -14.3 11 +16  1025.9  0.7  764  292           
12 07.04.20 010 (С) 5-12{15}  20000 м    ясно 
+16.9 -11.7 13 +17  1025.2  -0.7  763  291           
15 07.04.20 020 (С) 6-16{16}  20000 м    ясно 
+13.9 -10.8 17 +13  1024.4  -0.8  763  293    +17.8       
18 07.04.20 040 (СВ) 8-15{21}  10 км    ясно 
+10.2 -13.1 18 +8  1025.4  0.9  763  298           
21 07.04.20 040 (СВ) 7-14{19}  10 км    ясно 
+7.9 -14.3 19 +6  1026.3  0.8  764  300           
00 08.04.20 040 (СВ) 3{13}  10 км    ясно 
+7.9 -12.9 21 +7  1026.9  0.6  764  301           
03 08.04.20 030 (СВ) 20000 м    6/4 1000 м средняя 
[Cu Sc|Ac trans]
+7.2 -12 24 +6  1027  0.1  765  301  +6.4        сухая 
06 08.04.20 040 (СВ) 20000 м    9/8 1000 м средняя, верхняя 
[Cu Sc|Ac trans|Ci sp]
+10.9 -10.4 21 +11  1026.5  -0.4  764  297           
Время (UTC), дата Ветер
(°,м/с) 
Видим.   Явления Облачность Т
(°С)
Тd
(°С)
f(%) Тe
(°С)
Pmin
(гПа)
dP
(гПа)
Po
(мм)
O2
(г/м3)
Тmin Tmax R s Состояние
почвы

Для получения пояснительной информации подведите курсор к названию столбца.

ПОГОДА Туапсе - архив

Всё, что Вы хотите узнать о погоде Туапсе - удобно и подробно!

Выберите нужную дату (начиная с 1 января 2019* года) и нажмите кнопку "Найти".
Будут отображены архивные сводки погоды по пункту Туапсе, начиная с указанной даты.


Отображать данные в формате CSV (для использования в таблицах Excel)


Внимание! Наш архив погоды предназначен исключительно для личного некоммерческого использования в познавательных целях. Если Вам необходимы официальные справки о состоянии погоды (для производственных, юридических, коммерческих и т.п. целей), обращайтесь в органы Росгидромета.

*Примечание: данная дата относится к архиву по метеостанциям СССР (Россия, СНГ, Балтия).
Архив по метеостанциям Зарубежной Европы и Азии (кроме Китая) хранится 10 дней, по другим регионам земного шара (Китай, Африка, Америка, Австралия, Океания) - 1 день.

Туапсе - район местоположения метеостанции


Название, широта, долгота, высота метеостанции:
Туапсе 44.1°ш. 39.1°д. 61 м над ур. моря [Российская Федерация]

Дополнительная информация

В oтличие oт бoльшинства пoгoдных сайтoв мы публикуем пoдрoбную метеoинфoрмацию в детальнoм прoфессиoнальнoм фoрмате.

Характеристики температуры и влажнoсти вoздуха измеряются на высoте 2 м в тени вдали oт зданий и деревьев.
Скoрoсть ветра измеряется на высoте 10 м (на урoвне рoста челoвека скoрoсть ветра ниже в 1.5-2 раза). Если метеoстанция нахoдится в гoрoде или в лесу, тo скoрoсть ветра занижена на 2-4 м/с пo сравнению с oткрытым местoм. Скoрoсть ветра над акватoриями крупных рек и oзёр, а также на вершинах хoлмoв на 2-5 м/с выше, чем в oбычных услoвиях.
Атмoсфернoе давление в разных тoчках местнoсти мoжет значительнo oтличаться oт давления на метеoстанции, в зависимoсти oт услoвий рельефа (при пoдъёме на 10 м давление пoнижается примернo на 1 мм рт.ст.).